sat.trackr.live / text

‹ back to catalog

STARLINK-2695

NORAD 48644 · 2021-044G

PAYLOAD ACTIVE UNKNOWN

§ Identity

Operator
Country
US
Launch date
2021-05-26
Launch site
AFETR
Launch vehicle
Mass (kg)
RCS (m²)

Purposes: comms

External: N2YO · Heavens-Above · Gunter

§ Orbital elements

Epoch: 2026-09-19T16:36:45.194400Z

Period
94.01 min
Inclination
53.1598°
Eccentricity
0.0001356
Mean motion
15.31706570 rev/d
Perigee alt
469.8 km
Apogee alt
471.6 km
Semi-major
6,848.9 km
B*
4.9472e-6
RAAN
291.1986°
Arg perigee
54.7019°
Mean anomaly
305.4109°
Rev number
29,355

§ Raw data

STARLINK-26951 48644U 21044G   26262.69218975 -.00000212  00000+0  49472-5 0  99982 48644  53.1598 291.1986 0001356  54.7019 305.4109 15.31706570293557

JSON: /api/v1/satellites/48644 · /tle

For live sub-satellite position, see the globe view (requires WebGL).

§ Visibility from observer

Set your observer location to see the next 7 days of passes ≥ 10°. The values pass through the URL so the page stays shareable.

No JS? Fill the form by hand. The geolocation button needs JavaScript.